Погода в Красной Горке

Россия / Томская область     57°06′14″N   87°13′56″E
темп.,
°C
ветер,
м/с
пор.,
м/с
влажн.,
%
обл.,
%
осадки,
мм/ч
давл.,
гПа
погр.,
м
29 ноября, пн
пн2901:00−7юз51392100 0.4 1031504
04:00−7юз51293100 0.1 1032469
07:00−7юз41094100 0.2 1033411
10:00−8юз41094100 0.1 1033410
13:00−7юз41191100 0.3 1032462
16:00−7ююз41194100 0.3 1030529
19:00−7юз51290100 0.4 1029468
22:00−7юз51388100 0.0 1028469
30 ноября, вт
вт3001:00−7юз5148693 0.0 1027476
04:00−7юз5158297 0.0 1026487
07:00−8юз5157998 0.0 1025461
10:00−8юз51580100 0.0 1024477
13:00−6юз61578100 0.0 1023600
16:00−6юз5147874 0.0 1022501
19:00−7юз51481100 0.0 1022467
22:00−8юз51482100 0.0 1023438
1 декабря, ср
ср101:00−8юз51482100 0.0 1023447
04:00−9юз4128694 0.0 1024388
07:00−10юз4993100 0.1 1026291
10:00−10юз3793100 0.2 1028253
13:00−9юз3689100 0.4 1028276
16:00−9ююз3883100 0.0 1027299
19:00−9ююз31087100 0.0 1026305
22:00−8ююз41283100 0.0 1025378
2 декабря, чт
чт201:00−7юз41381100 0.0 1024436
04:00−7ююз51283100 0.0 1023398
07:00−7юз51383100 0.0 1022396
10:00−7юз51383100 0.0 1022401
13:00−5юз41380100 0.0 1022427
16:00−5ююз5138098 0.0 1021367
19:00−5ююз41380100 0.0 1020385
22:00−5ююз41576100 0.0 1018404
3 декабря, пт
пт301:00−5ююз51575100 0.0 1017392
04:00−4ююз51672100 0.0 1015424
07:00−3ююз51769100 0.0 1012464
10:00−1ююз61962100 0.0 1010596
13:00+1ююз7186099 0.0 1007783
16:00+1ююз71669100 0.0 1006830
19:000юз71497100 1.5 1005922
22:000зюз71487100 1.0 10071128